Language: 


Des rapports , des résumés tant et plus, au choix de chacun....


Données Historiques de Météogheer
Journalier Rapport pour Mars 7, 2018 Unitée:  Métrique    Impériale   Les deux
Suivant Jour »
Journalier Hebdomadaire Mensuel Annuel Sur mesure
  Max: Min: Moyenne:
Température: 8.3 °C 2.2 °C 5.1 °C
Point de rosée: 8.0 °C 1.0 °C 4.6 °C
Humidité: 98% 86% 95%
Vent: 26.7km/h 0.0km/h 5.3km/h
Rafales: 26.7km/h - -
Vent- - WSW
Pression: 999.9 hPa 988.0 hPa -
Pluie: 7.6 mm    
Historical Graphs
 
 
Données tabulaires pour Mars 7, 2018
Heure Température Point de rosée Pression Vent Vent Rafales Humidité Pluie Taux (Horaire) Conditions
00:00 2.8 °C 2.0 °C 990.1 hPa NNE 4.3 km/h 6.1 km/h 89% 0.0 mm
00:10 2.8 °C 2.0 °C 990.1 hPa Calm   5.5 km/h 89% 0.0 mm
00:20 2.6 °C 1.0 °C 990.1 hPa Calm   5.8 km/h 90% 0.0 mm
00:25 2.6 °C 1.0 °C 990.1 hPa Calm   4.7 km/h 90% 0.0 mm
00:30 2.5 °C 1.0 °C 990.1 hPa Calm   5.5 km/h 90% 0.0 mm
00:40 2.4 °C 1.0 °C 990.1 hPa Calm     90% 0.0 mm
00:45 2.4 °C 1.0 °C 989.1 hPa Calm     91% 0.0 mm
00:50 2.4 °C 1.0 °C 989.1 hPa Calm     91% 0.0 mm
00:55 2.3 °C 1.0 °C 989.1 hPa Calm     91% 0.0 mm
01:00 2.2 °C 1.0 °C 989.1 hPa Calm     91% 0.0 mm
01:10 2.4 °C 1.0 °C 989.1 hPa Calm     92% 0.0 mm
01:20 2.5 °C 2.0 °C 990.1 hPa Calm     92% 0.0 mm
01:30 2.7 °C 2.0 °C 989.1 hPa Calm     93% 0.0 mm
01:35 2.8 °C 2.0 °C 989.1 hPa Calm     94% 0.0 mm
01:40 2.9 °C 2.0 °C 989.1 hPa Calm     94% 0.0 mm
01:50 3.1 °C 2.0 °C 990.1 hPa Calm     94% 0.0 mm
01:55 3.1 °C 2.0 °C 990.1 hPa Calm     94% 0.0 mm
02:05 3.3 °C 3.0 °C 989.1 hPa Calm     94% 0.0 mm
02:10 3.3 °C 3.0 °C 989.1 hPa Calm   2.6 km/h 94% 0.0 mm
02:20 3.3 °C 3.0 °C 989.1 hPa Calm     94% 0.0 mm
02:25 3.3 °C 3.0 °C 989.1 hPa Calm     94% 0.0 mm
02:30 3.3 °C 3.0 °C 989.1 hPa Calm     94% 0.0 mm
02:40 3.5 °C 3.0 °C 989.1 hPa Calm   1.4 km/h 95% 0.0 mm
02:50 3.6 °C 3.0 °C 989.1 hPa Calm     95% 0.0 mm
02:55 3.6 °C 3.0 °C 989.1 hPa Calm     95% 0.0 mm
03:00 3.6 °C 3.0 °C 989.1 hPa Calm     95% 0.0 mm
03:10 3.6 °C 3.0 °C 989.1 hPa Calm     95% 0.0 mm
03:20 3.6 °C 3.0 °C 989.1 hPa Calm     95% 0.0 mm
03:30 3.6 °C 3.0 °C 989.1 hPa Calm     95% 0.0 mm
03:35 3.6 °C 3.0 °C 989.1 hPa Calm     95% 0.0 mm
03:40 3.6 °C 3.0 °C 989.1 hPa Calm   1.4 km/h 95% 0.0 mm
03:50 3.7 °C 3.0 °C 989.1 hPa Calm   1.4 km/h 95% 0.0 mm
03:55 3.6 °C 3.0 °C 989.1 hPa Calm     95% 0.0 mm
04:00 3.6 °C 3.0 °C 989.1 hPa Calm     95% 0.0 mm
04:05 3.6 °C 3.0 °C 989.1 hPa Calm     95% 0.0 mm
04:10 3.5 °C 3.0 °C 989.1 hPa Calm     95% 0.0 mm
04:20 3.5 °C 3.0 °C 988.0 hPa Calm     95% 0.0 mm
04:25 3.5 °C 3.0 °C 988.0 hPa Calm     95% 0.0 mm
04:30 3.6 °C 3.0 °C 989.1 hPa Calm     95% 0.0 mm
04:40 3.4 °C 3.0 °C 989.1 hPa Calm     95% 0.0 mm
04:50 3.2 °C 3.0 °C 989.1 hPa Calm     94% 0.0 mm
05:00 3.1 °C 2.0 °C 989.1 hPa Calm     94% 0.0 mm
05:05 3.0 °C 2.0 °C 989.1 hPa Calm     94% 0.0 mm
05:10 3.0 °C 3.0 °C 989.1 hPa Calm     95% 0.0 mm
05:20 3.0 °C 3.0 °C 989.1 hPa Calm     95% 0.0 mm
05:25 3.0 °C 3.0 °C 989.1 hPa Calm     95% 0.0 mm
05:30 3.0 °C 3.0 °C 988.0 hPa Calm     95% 0.0 mm
05:40 3.0 °C 3.0 °C 988.0 hPa Calm     95% 0.0 mm
05:50 3.1 °C 3.0 °C 989.1 hPa Calm     96% 0.0 mm
05:55 3.2 °C 3.0 °C 989.1 hPa Calm     96% 0.0 mm
06:00 3.4 °C 3.0 °C 989.1 hPa Calm     96% 0.0 mm
06:10 3.5 °C 3.0 °C 989.1 hPa Calm     97% 0.0 mm
06:20 3.5 °C 3.0 °C 989.1 hPa Calm     96% 0.0 mm
06:30 3.5 °C 3.0 °C 988.0 hPa Calm   4.3 km/h 96% 0.0 mm
06:35 3.5 °C 3.0 °C 988.0 hPa Calm   4.3 km/h 96% 0.0 mm
06:40 3.6 °C 3.0 °C 988.0 hPa Calm     96% 0.0 mm
06:45 3.6 °C 3.0 °C 989.1 hPa Calm     96% 0.0 mm
06:50 3.6 °C 3.0 °C 989.1 hPa Calm     96% 0.0 mm
07:00 3.7 °C 3.0 °C 989.1 hPa Calm     97% 0.5 mm
07:05 3.8 °C 3.0 °C 989.1 hPa Calm     97% 0.8 mm
07:10 3.9 °C 4.0 °C 989.1 hPa Calm     98% 1.5 mm
07:20 4.3 °C 4.0 °C 989.1 hPa Calm     98% 3.0 mm
07:30 4.5 °C 5.0 °C 990.1 hPa Calm     98% 3.8 mm
07:40 4.6 °C 5.0 °C 990.1 hPa Calm   4.7 km/h 98% 4.3 mm
07:50 4.7 °C 5.0 °C 990.1 hPa Calm     98% 4.6 mm
08:00 4.8 °C 5.0 °C 990.1 hPa Calm     98% 4.1 mm
08:10 4.9 °C 5.0 °C 990.1 hPa Calm   1.4 km/h 98% 3.3 mm
08:20 5.0 °C 5.0 °C 991.1 hPa Calm     98% 1.8 mm
08:30 5.1 °C 5.0 °C 991.1 hPa Calm     98% 1.3 mm
08:40 5.1 °C 5.0 °C 991.1 hPa Calm     98% 0.5 mm
08:50 5.3 °C 6.0 °C 991.1 hPa Calm     98% 0.3 mm
09:00 5.4 °C 6.0 °C 990.1 hPa Calm     98% 0.5 mm
09:10 5.6 °C 6.0 °C 990.1 hPa Calm     98% 0.3 mm
09:20 6.0 °C 6.0 °C 991.1 hPa Calm   2.6 km/h 98% 0.3 mm
09:30 6.3 °C 6.0 °C 991.1 hPa Calm   6.1 km/h 98% 0.3 mm
09:40 6.5 °C 7.0 °C 991.1 hPa Calm     98% 0.3 mm
09:50 6.9 °C 7.0 °C 991.1 hPa Calm   2.1 km/h 98% 0.3 mm
10:00 7.0 °C 7.0 °C 991.1 hPa Calm   6.4 km/h 98% 0.0 mm
10:10 7.0 °C 7.0 °C 991.1 hPa Calm   6.9 km/h 98% 0.0 mm
10:20 6.9 °C 7.0 °C 992.1 hPa Calm     98% 0.0 mm
10:30 7.2 °C 7.0 °C 992.1 hPa Calm   7.2 km/h 98% 0.0 mm
10:40 7.6 °C 8.0 °C 992.1 hPa WSW 4.3 km/h 6.4 km/h 98% 0.0 mm
10:50 7.9 °C 8.0 °C 992.1 hPa Calm   9.0 km/h 98% 0.0 mm
11:00 8.1 °C 8.0 °C 992.1 hPa WSW 6.9 km/h 10.8 km/h 96% 0.0 mm
11:10 7.9 °C 7.0 °C 992.1 hPa WSW 9.3 km/h 10.5 km/h 95% 0.0 mm
11:20 8.1 °C 8.0 °C 992.1 hPa Calm   10.5 km/h 95% 0.0 mm
11:30 8.2 °C 7.0 °C 993.1 hPa SW 6.4 km/h 9.7 km/h 94% 0.0 mm
11:40 8.2 °C 7.0 °C 993.1 hPa SSW 10.5 km/h 12.2 km/h 92% 0.0 mm
11:50 8.3 °C 7.0 °C 993.1 hPa SSW 10.1 km/h 12.6 km/h 92% 0.0 mm
12:00 8.3 °C 8.0 °C 993.1 hPa SW 10.1 km/h 11.9 km/h 93% 0.0 mm
12:10 8.2 °C 7.0 °C 993.1 hPa SW 6.4 km/h 12.2 km/h 92% 0.0 mm
12:20 8.2 °C 7.0 °C 993.1 hPa SW 10.1 km/h 12.6 km/h 93% 0.0 mm
12:30 8.1 °C 7.0 °C 993.1 hPa SW 10.1 km/h 15.4 km/h 93% 0.0 mm
12:40 8.1 °C 7.0 °C 993.1 hPa WSW 9.0 km/h 13.0 km/h 94% 0.3 mm
12:50 8.2 °C 8.0 °C 993.1 hPa SW 6.9 km/h 11.9 km/h 95% 0.5 mm
12:55 8.3 °C 8.0 °C 993.1 hPa WSW 6.4 km/h 9.3 km/h 95% 0.5 mm
13:00 8.3 °C 8.0 °C 993.1 hPa WSW 5.8 km/h 9.7 km/h 96% 0.5 mm
13:10 8.0 °C 8.0 °C 993.1 hPa WSW 8.7 km/h 9.7 km/h 95% 1.0 mm
13:15 7.8 °C 7.0 °C 993.1 hPa SW 9.0 km/h 9.7 km/h 96% 1.0 mm
13:20 7.8 °C 7.0 °C 993.1 hPa Calm   9.3 km/h 96% 1.0 mm
13:25 7.7 °C 7.0 °C 993.1 hPa SSW 10.8 km/h 10.8 km/h 96% 1.0 mm
13:30 7.7 °C 7.0 °C 993.1 hPa WSW 10.1 km/h 13.0 km/h 97% 1.3 mm
13:35 7.7 °C 7.0 °C 993.1 hPa West 13.0 km/h 14.0 km/h 97% 1.0 mm
13:40 7.6 °C 7.0 °C 993.1 hPa WSW 9.0 km/h 14.0 km/h 97% 1.0 mm
13:45 7.6 °C 7.0 °C 992.1 hPa West 9.0 km/h 14.0 km/h 97% 1.0 mm
13:50 7.7 °C 8.0 °C 992.1 hPa Calm   10.8 km/h 98% 0.8 mm
13:55 7.7 °C 8.0 °C 992.1 hPa WSW 13.7 km/h 14.0 km/h 98% 0.8 mm
14:00 7.7 °C 8.0 °C 993.1 hPa WSW 9.0 km/h 14.0 km/h 98% 0.8 mm
14:05 7.6 °C 8.0 °C 993.1 hPa WSW 7.9 km/h 14.0 km/h 98% 0.5 mm
14:10 7.5 °C 8.0 °C 993.1 hPa WSW 10.5 km/h 12.6 km/h 98% 0.5 mm
14:20 7.8 °C 8.0 °C 992.1 hPa Calm   10.5 km/h 98% 0.5 mm
14:30 7.7 °C 8.0 °C 993.1 hPa WSW 9.7 km/h 10.5 km/h 98% 0.3 mm
14:40 7.5 °C 8.0 °C 993.1 hPa WSW 15.8 km/h 16.3 km/h 98% 0.3 mm
14:50 7.5 °C 8.0 °C 994.1 hPa WSW 12.2 km/h 16.3 km/h 98% 0.3 mm
15:00 7.4 °C 7.0 °C 993.1 hPa WSW 14.0 km/h 16.9 km/h 98% 0.3 mm
15:10 7.2 °C 7.0 °C 993.1 hPa West 24.8 km/h 24.8 km/h 98% 0.0 mm
15:20 7.1 °C 7.0 °C 994.1 hPa West 26.7 km/h 26.7 km/h 98% 0.3 mm
15:30 7.0 °C 7.0 °C 994.1 hPa West 15.1 km/h 26.7 km/h 98% 0.5 mm
15:45 7.0 °C 7.0 °C 995.1 hPa WSW 14.0 km/h 17.7 km/h 98% 0.8 mm
15:50 6.8 °C 7.0 °C 995.1 hPa WNW 19.8 km/h 19.8 km/h 98% 0.8 mm
16:00 6.7 °C 6.0 °C 995.1 hPa West 6.4 km/h 19.8 km/h 97% 0.8 mm
16:10 6.4 °C 6.0 °C 995.1 hPa West 15.4 km/h 16.9 km/h 97% 0.8 mm
16:20 6.4 °C 6.0 °C 995.1 hPa WNW 15.8 km/h 17.2 km/h 97% 0.5 mm
16:30 6.3 °C 6.0 °C 994.1 hPa West 5.8 km/h 26.2 km/h 97% 0.3 mm
16:40 6.4 °C 6.0 °C 994.1 hPa WNW 21.2 km/h 21.2 km/h 97% 0.3 mm
16:50 6.5 °C 6.0 °C 995.1 hPa West 17.7 km/h 21.2 km/h 97% 0.0 mm
17:00 6.5 °C 6.0 °C 995.1 hPa WNW 10.1 km/h 17.2 km/h 97% 0.0 mm
17:10 6.7 °C 6.0 °C 995.1 hPa West 6.9 km/h 12.2 km/h 96% 0.0 mm
17:20 7.1 °C 7.0 °C 995.1 hPa West 12.6 km/h 14.0 km/h 96% 0.0 mm
17:30 7.5 °C 7.0 °C 995.1 hPa NNW 12.6 km/h 24.8 km/h 93% 0.0 mm
17:40 7.8 °C 6.0 °C 995.1 hPa WSW 6.9 km/h 17.7 km/h 91% 0.0 mm
17:50 7.8 °C 6.0 °C 996.2 hPa WSW 10.5 km/h 15.8 km/h 89% 0.0 mm
18:00 7.5 °C 6.0 °C 996.2 hPa West 10.5 km/h 19.8 km/h 88% 0.0 mm
18:10 7.4 °C 6.0 °C 996.2 hPa West 12.2 km/h 24.5 km/h 88% 0.0 mm
18:20 7.3 °C 6.0 °C 996.8 hPa WSW 20.1 km/h 20.1 km/h 88% 0.0 mm
18:30 7.1 °C 5.0 °C 996.2 hPa West 10.1 km/h 20.6 km/h 86% 0.0 mm
18:40 6.8 °C 5.0 °C 996.2 hPa West 18.3 km/h 24.5 km/h 86% 0.0 mm
18:50 6.5 °C 5.0 °C 996.8 hPa West 17.2 km/h 26.2 km/h 86% 0.0 mm
19:00 6.3 °C 4.0 °C 996.8 hPa WSW 12.2 km/h 18.0 km/h 86% 0.0 mm
19:10 6.1 °C 4.0 °C 996.8 hPa WSW 11.9 km/h 23.0 km/h 87% 0.0 mm
19:20 5.8 °C 4.0 °C 996.8 hPa WSW 9.3 km/h 16.3 km/h 88% 0.0 mm
19:30 5.4 °C 4.0 °C 997.9 hPa Calm   13.7 km/h 89% 0.0 mm
19:40 5.2 °C 4.0 °C 997.9 hPa WSW 9.7 km/h 14.8 km/h 91% 0.0 mm
19:50 5.0 °C 4.0 °C 997.9 hPa SW 7.9 km/h 13.0 km/h 91% 0.0 mm
20:00 4.9 °C 4.0 °C 997.9 hPa WSW 8.7 km/h 14.0 km/h 93% 0.0 mm
20:10 4.7 °C 4.0 °C 997.9 hPa WSW 9.3 km/h 12.2 km/h 93% 0.0 mm
20:20 4.7 °C 4.0 °C 997.9 hPa WSW 13.0 km/h 16.3 km/h 94% 0.0 mm
20:30 4.6 °C 4.0 °C 998.9 hPa WSW 11.1 km/h 13.7 km/h 94% 0.0 mm
20:40 4.4 °C 3.0 °C 998.9 hPa WSW 10.1 km/h 15.4 km/h 94% 0.0 mm
20:50 4.2 °C 3.0 °C 998.9 hPa Calm   12.6 km/h 94% 0.0 mm
21:00 4.1 °C 3.0 °C 998.9 hPa WSW 7.9 km/h 13.0 km/h 94% 0.0 mm
21:10 4.1 °C 3.0 °C 998.9 hPa WSW 9.3 km/h 11.6 km/h 95% 0.0 mm
21:20 3.9 °C 3.0 °C 998.9 hPa WSW 7.9 km/h 10.1 km/h 94% 0.0 mm
21:30 3.8 °C 3.0 °C 998.9 hPa WSW 10.8 km/h 10.8 km/h 94% 0.0 mm
21:40 3.8 °C 3.0 °C 998.9 hPa WSW 9.3 km/h 13.0 km/h 95% 0.0 mm
21:50 3.8 °C 3.0 °C 998.9 hPa WSW 9.7 km/h 11.9 km/h 96% 0.0 mm
22:00 3.7 °C 3.0 °C 998.9 hPa WSW 14.0 km/h 14.0 km/h 96% 0.0 mm
22:10 3.6 °C 3.0 °C 998.9 hPa WSW 9.3 km/h 13.0 km/h 96% 0.0 mm
22:20 3.7 °C 3.0 °C 997.9 hPa WSW 9.7 km/h 14.0 km/h 97% 0.0 mm
22:30 3.8 °C 3.0 °C 998.9 hPa WSW 11.9 km/h 19.8 km/h 97% 0.0 mm
22:40 3.7 °C 3.0 °C 998.9 hPa WSW 8.7 km/h 13.0 km/h 97% 0.0 mm
22:50 3.4 °C 3.0 °C 998.9 hPa WSW 7.9 km/h 8.7 km/h 96% 0.0 mm
23:00 3.3 °C 3.0 °C 998.9 hPa WSW 10.5 km/h 10.5 km/h 96% 0.0 mm
23:10 3.4 °C 3.0 °C 998.9 hPa WSW 8.7 km/h 11.1 km/h 97% 0.0 mm
23:20 3.3 °C 3.0 °C 998.9 hPa SW 9.7 km/h 9.7 km/h 97% 0.0 mm
23:30 3.5 °C 4.0 °C 999.9 hPa WSW 11.9 km/h 12.2 km/h 98% 0.0 mm
23:40 3.6 °C 4.0 °C 999.9 hPa WSW 9.3 km/h 13.7 km/h 98% 0.0 mm
23:50 3.7 °C 4.0 °C 999.9 hPa WSW 9.0 km/h 13.7 km/h 98% 0.0 mm
Données Historique de Météo Turbie

Mise a jour : 18/06/2018 00:15:12
Généré par Cumulus 1.9.4 (1099)